This is the latest recevied weather packets stored in our database for station/object SV9TNF-52. If no packets are shown the sender has not sent any weather packets the latest 10 day(s).
| Time | Temp. | Humidity | Pressure | Rain* | Wind** | Luminosity | Snow |
|---|---|---|---|---|---|---|---|
| 1788392638 | 22.22° C | 50% | 1018.3 hPa | 0 mm | 8.05 m/s, 183° | - | - |
| 1788392338 | 22.22° C | 49% | 1018.3 hPa | 0 mm | 6.26 m/s, 193° | - | - |
| 1788392038 | 22.22° C | 49% | 1018.3 hPa | 0 mm | 9.39 m/s, 254° | - | - |
| 1788391738 | 22.22° C | 48% | 1018.3 hPa | 0 mm | 8.94 m/s, 235° | - | - |
| 1788391438 | 22.22° C | 47% | 1019 hPa | 0 mm | 5.81 m/s, 204° | - | - |
| 1788391138 | 22.22° C | 47% | 1019 hPa | 0 mm | 6.26 m/s, 242° | - | - |
| 1788390838 | 22.22° C | 47% | 1019 hPa | 0 mm | 5.81 m/s, 214° | - | - |
| 1788390538 | 22.22° C | 47% | 1019 hPa | 0 mm | 5.81 m/s, 193° | - | - |
| 1788390237 | 22.22° C | 46% | 1019 hPa | 0 mm | 6.26 m/s, 241° | - | - |
| 1788389938 | 22.22° C | 46% | 1019.3 hPa | 0 mm | 3.58 m/s, 201° | - | - |
| 1788389637 | 22.22° C | 46% | 1019.3 hPa | 0 mm | 4.92 m/s, 233° | - | - |
| 1788389337 | 22.22° C | 47% | 1019.3 hPa | 0 mm | 4.92 m/s, 180° | - | - |
| 1788389037 | 22.22° C | 47% | 1019.3 hPa | 0 mm | 4.92 m/s, 183° | - | - |
| 1788388737 | 22.22° C | 47% | 1019.3 hPa | 0 mm | 6.71 m/s, 191° | - | - |
| 1788388437 | 22.78° C | 46% | 1019.3 hPa | 0 mm | 6.26 m/s, 186° | - | - |
| 1788388137 | 22.22° C | 47% | 1019.3 hPa | 0 mm | 5.81 m/s, 181° | - | - |
| 1788387837 | 22.78° C | 47% | 1019.3 hPa | 0 mm | 5.81 m/s, 229° | - | - |
| 1788387537 | 22.78° C | 47% | 1019.3 hPa | 0 mm | 5.81 m/s, 244° | - | - |
| 1788387237 | 22.78° C | 47% | 1019.3 hPa | 0 mm | 7.6 m/s, 206° | - | - |
| 1788386937 | 22.22° C | 47% | 1019.3 hPa | 0 mm | 6.71 m/s, 196° | - | - |
| 1788386643 | 22.22° C | 47% | 1019.3 hPa | 0 mm | 5.81 m/s, 263° | - | - |
| 1788386336 | 22.78° C | 47% | 1019.3 hPa | 0 mm | 5.36 m/s, 190° | - | - |
| 1788386036 | 22.78° C | 47% | 1019.3 hPa | 0 mm | 6.26 m/s, 214° | - | - |
| 1788385736 | 22.78° C | 47% | 1019.3 hPa | 0 mm | 6.26 m/s, 210° | - | - |
| 1788385436 | 22.78° C | 47% | 1019.3 hPa | 0 mm | 6.26 m/s, 190° | - | - |
* Rain latest hour (hover to see other rain measurements)
** Current wind speed in m/s (hover to see current wind gust speed)